Location: *
(49.5819°N, 1.7989°W)
Time: 04:07:49
(UTC+00:00)

Daily predictions for brighter satellites

Satellite Brightness Start Highest point End
(mag) Time Altitude Azimuth Time Altitude Azimuth Time Altitude Azimuth
ATLAS 3B R/B 4.4 01:56:43 24° N 01:57:13 24° N 02:02:33 10° ENE
CENTAUR R/B 4.4 02:10:13 25° NNW 02:12:49 31° NNE 02:19:53 10° ENE
SL-16 R/B 4.1 02:16:17 26° ENE 02:16:17 26° ENE 02:19:02 10° NE
CZ-2D R/B 4.4 02:15:17 10° NNE 02:16:29 17° N 02:16:29 17° N
ADEOS II 3.9 02:26:28 10° NNE 02:28:59 27° NE 02:28:59 27° NE
Cosmos 2322 Rocket 3.3 02:48:50 41° NE 02:48:50 41° NE 02:52:33 10° NE
Exosat Rocket 4.5 02:57:25 77° NNW 02:57:25 77° NNW 03:03:38 10° NNE
USA 267 3.4 02:50:34 10° ENE 02:56:29 68° E 02:56:29 68° E
ARIANE 5 R/B 4.1 02:52:48 10° NNE 02:55:13 29° NNE 02:55:13 29° NNE
Cosmos 2360 Rocket 3.2 02:59:56 40° E 02:59:56 40° E 03:04:55 10° NE
Cosmos 1980 Rocket 3.7 03:07:30 27° N 03:07:30 27° N 03:10:35 10° NNE
IDEFIX/ARIANE 42P 4.3 03:05:41 10° NNE 03:10:14 29° E 03:12:52 19° SE
Nadezhda 1 Rocket 4.1 03:03:57 10° N 03:10:22 74° E 03:10:45 71° ESE
Cosmos 1745 Rocket 4.2 03:14:22 61° SE 03:15:01 66° E 03:21:12 10° NNE
USA 229 DEB 4.4 03:16:50 41° NNW 03:16:50 41° NNW 03:23:25 10° NE
USA 229 4.3 03:16:57 41° NNW 03:16:57 41° NNW 03:23:30 10° NE
Cosmos 1844 Rocket 3.3 03:20:51 47° SE 03:20:51 47° SE 03:24:48 10° SE
NOSS 3-1 (A) 3.9 03:21:26 49° NNW 03:21:26 49° NNW 03:27:32 10° NE
Lacrosse 4 Rocket 3.6 03:27:39 19° NNE 03:27:39 19° NNE 03:28:59 10° NNE
USA 234 3.3 03:26:08 10° SE 03:31:51 58° S 03:31:51 58° S
Cosmos 2333 Rocket 4.1 03:28:22 11° SSE 03:32:47 27° ESE 03:37:26 10° NE
Cosmos 2278 Rocket 3.9 03:28:06 10° NNW 03:33:08 31° NE 03:38:07 10° ESE
Resurs 1-4 Rocket 4.2 03:31:13 10° N 03:32:40 16° NNW 03:32:40 16° NNW
Cosmos 1844 3.8 03:33:25 25° NNW 03:36:54 79° ENE 03:42:42 10° SSE
NOSS 3-1 (C) 4.4 03:39:36 34° NW 03:40:11 35° NNW 03:46:29 10° NE
Okean 2 4.3 03:41:22 45° E 03:41:22 45° E 03:45:11 10° NNE
Cosmos 2098 Rocket 4.3 03:40:56 34° S 03:44:33 89° E 03:52:04 10° N
H-2A R/B 4.2 03:41:33 10° NE 03:45:10 30° E 03:47:59 15° SSE
BREEZE-M DEB (TANK) 4.2 03:50:38 26° SSE 03:50:38 26° SSE 03:52:06 10° SE
Cosmos 1386 Rocket 4.4 03:47:05 52° SSW 03:48:46 83° W 03:55:14 10° N
PSLV R/B 4.2 03:45:05 10° NNE 03:49:16 52° E 03:49:53 47° SE
ATLAS 3B R/B 3.7 03:43:59 13° NW 03:49:39 42° NNE 03:56:03 10° ESE
Cosmos 1269 Rocket 4.5 03:55:06 47° NW 03:55:06 47° NW 03:59:35 10° NNE
Cosmos 1544 Rocket 3.6 03:51:48 10° N 04:01:29 - SSE 03:55:57 74° NE
SL-16 R/B 2.8 03:58:09 41° NW 03:58:09 41° NW 04:03:16 10° NNE
Cosmos 2322 3.9 03:56:18 37° S 03:58:35 68° ESE 04:04:18 10° NNE
CZ-2D R/B 4.3 03:56:56 10° NNW 03:57:48 12° NNW 03:57:48 12° NNW
BREEZE-M DEB (TANK) 4.2 04:05:27 23° ESE 04:05:27 23° ESE 04:06:23 10° ESE
ADEOS 3.6 03:59:01 10° NNE 04:04:17 77° ESE 04:07:14 27° S
CENTAUR R/B 3.6 03:57:34 10° NW 04:05:10 57° NE 04:13:35 10° ESE
ATLAS 2AS CENTAUR R/B 4.4 03:58:55 10° S 04:06:00 37° ESE 04:13:10 10° NE
Cosmos 1378 3.9 04:05:27 36° SSE 04:06:37 50° E 04:10:16 10° NNE
Cosmos 921 Rocket 4.2 04:03:11 10° N 04:07:20 41° ENE 04:11:24 10° SE
USA 238 DEB 3.7 04:01:41 16° NW 04:07:40 87° SW 04:15:06 10° SE
USA 238 3.7 04:01:47 16° NW 04:07:47 87° SW 04:15:12 10° SE
COSMOS 2455 2.9 04:05:49 34° SSW 04:08:33 75° ESE 04:14:35 10° NE
Celestis-02/Orion 38 4.4 04:03:48 10° SSE 04:08:57 71° WSW 04:14:16 10° NNW
Cosmos 2237 4.1 04:08:49 52° SW 04:10:13 73° WNW 04:15:59 10° NNE
ADEOS II 3.3 04:06:39 10° N 04:09:54 26° NW 04:09:54 26° NW
Cosmos 2219 Rocket 2.9 04:08:49 13° S 04:13:39 52° ESE 04:19:04 10° NE
Spot 2 3.7 04:10:07 10° NNE 04:14:12 78° WNW 04:14:13 78° WNW
Cosmos 2237 Rocket 4.4 04:13:26 10° SSE 04:17:54 24° ESE 04:22:24 10° NE
COSMOS 2428 3.1 04:18:13 12° S 04:23:20 62° ESE 04:28:57 10° NE
Cosmos 44 4.1 04:20:22 15° NNW 04:23:48 44° NE 04:27:57 10° ESE
Gblst 52 Del rocket 4.2 04:22:38 41° WNW 04:24:36 73° N 04:30:23 10° E
Cosmos 1470 3.9 04:22:37 10° N 04:26:27 45° ENE 04:30:13 10° SSE
Cosmos 2322 Rocket 3.1 04:30:41 28° WNW 04:31:28 29° NW 04:36:22 10° NNE
Cosmos 1842 3.2 04:30:18 16° S 04:33:23 85° E 04:37:22 10° N
Cosmos 1709 Rocket 4.0 04:27:55 12° SSW 04:33:46 65° WNW 04:40:06 10° N
NOSS 3-2 (A) 3.9 04:27:42 10° NW 04:35:07 74° SW 04:43:25 10° SSE
Cosmos 1733 3.0 04:31:22 10° NNW 04:35:14 70° W 04:39:04 10° S
ARIANE 5 R/B 4.1 04:33:03 10° NNW 04:35:33 17° NW 04:35:33 17° NW
ATLAS 5 CENTAUR R/B 4.4 04:33:37 13° NW 04:37:43 40° NNE 04:53:09 10° E
USA 267 3.5 04:33:41 10° ENE 04:40:04 57° NNW 04:43:49 26° W
NOSS 2-2 (E) 3.4 04:40:35 29° SSW 04:42:23 73° SE 04:46:43 10° NE
CZ-4B R/B 3.5 04:39:16 10° NNE 04:43:25 59° E 04:47:19 10° S
Cosmos 2360 Rocket 2.7 04:41:44 31° W 04:43:41 41° NW 04:49:02 10° NNE
COSMOS 2441 4.3 04:42:49 10° N 04:47:45 73° WNW 04:52:37 10° SSW
IDEFIX/ARIANE 42P 2.8 04:45:01 10° N 04:50:02 46° WNW 04:53:40 18° SW
Cosmos 1980 Rocket 4.3 04:49:16 10° NW 04:51:12 12° NNW 04:53:16 10° N
Cosmos 1975 Rocket 4.2 04:51:35 25° WNW 04:51:35 25° WNW 04:55:05 10° NNW
Aureole 1 Rocket 3.7 04:46:40 10° SSW 04:53:27 78° WNW 04:58:35 10° NNE
Cosmos 389 Rocket 4.0 04:50:33 10° SSE 04:53:43 37° E 04:56:55 10° NNE
BREEZE-M R/B 4.2 04:51:10 25° WSW 04:54:24 81° SSE 05:05:24 10° E
NOSS 3-2 (C) 4.0 04:48:55 10° NW 04:56:22 78° SW 05:04:43 10° SSE
MSX 3.8 04:51:37 10° N 04:57:17 62° WNW 05:02:54 10° SSW
NOSS 8 (F) 4.1 04:59:18 33° WSW 05:00:29 65° NW 05:03:38 10° NE
COSMO-SKYMED 1 3.0 04:56:34 10° SSE 05:00:52 65° ENE 05:05:11 10° N
Cosmos 1844 Rocket 3.8 05:02:44 21° WSW 05:02:44 21° WSW 05:06:37 10° SSW
Lacrosse 4 Rocket 3.7 05:04:22 10° NW 05:04:57 10° NNW 05:05:32 10° NNW
COBE Rocket 4.2 05:00:19 10° SSE 05:05:18 75° ENE 05:10:27 10° N
CZ-2C R/B 2.5 05:00:09 10° N 05:05:21 72° WNW 05:10:30 10° SSW
Cosmos 2074 Rocket 3.9 05:02:54 10° SSW 05:09:10 82° W 05:15:26 10° N
Cosmos 2181 Rocket 4.4 05:03:40 10° NNW 05:09:32 40° W 05:15:19 10° SSW
Okean O Rocket 3.5 05:05:36 10° NNE 05:09:39 33° E 05:13:38 10° SSE
Meteor 1-21 4.2 05:07:38 10° SSW 05:13:10 62° WNW 05:18:46 10° N
PAYLOAD A 4.1 05:09:42 10° N 05:14:18 49° WNW 05:19:00 10° SW
Cosmos 1953 2.3 05:11:10 10° N 05:15:15 86° WSW 05:19:17 10° S
USA 116 4.3 05:11:29 10° SSE 05:15:24 58° ENE 05:18:54 10° N
NOSS 3-4 (A) 4.2 05:09:59 10° SSW 05:15:48 53° ESE 05:22:00 10° NE
NOSS 3-4 (C) 4.3 05:10:04 10° SSW 05:15:54 53° ESE 05:22:06 10° NE
Cosmos 2333 Rocket 2.3 05:11:04 10° SW 05:16:40 59° WNW 05:22:19 10° NNE
PSLV R/B 3.7 05:13:30 10° NNE 05:17:17 82° ESE 05:20:59 10° SSW
Cosmos 2278 Rocket 2.2 05:11:59 10° NW 05:17:35 59° WSW 05:23:08 10° S
Cosmos 1726 Rocket 3.8 05:13:42 10° N 05:18:02 70° E 05:22:20 10° SSE
Cosmos 1140 Rocket 4.4 05:14:46 10° S 05:19:47 52° ESE 05:24:48 10° NNE
NOSS 2-2 (D) 3.3 05:16:45 14° SW 05:19:52 67° NW 05:24:14 10° NE
Cosmos 1758 3.6 05:16:36 10° NNW 05:20:24 44° W 05:24:13 10° SSW
H-2A R/B 3.3 05:17:06 10° N 05:20:39 30° WNW 05:24:18 10° SW
Cosmos 1943 Rocket 4.2 05:16:30 10° NNW 05:21:13 26° NE 05:25:54 10° E
Cosmos 2251 Rocket 4.3 05:17:50 14° WSW 05:21:56 34° NW 05:26:50 10° N
SKYMED 3 4.5 05:20:31 10° S 05:24:50 74° WSW 05:29:13 10° NNW
Cosmos 1726 3.2 05:22:37 10° N 05:26:11 48° ENE 05:29:45 10° SSE
Cosmos 2058 Rocket 3.8 05:22:08 10° N 05:26:28 58° ENE 05:30:48 10° SSE
CZ-4B R/B 4.1 05:24:00 10° N 05:27:42 45° WNW 05:31:31 10° SW
Cosmos 1356 3.8 05:26:29 10° N 05:29:57 67° ENE 05:33:23 10° SSE
NOSS 0 Rocket 4.0 05:23:51 10° SSW 05:30:01 88° WNW 05:36:16 10° NNE
Cosmos 614 Rocket 4.0 05:26:14 10° SSW 05:31:29 89° ESE 05:36:44 10° NNE
Cosmos 2228 2.9 05:29:05 10° NNW 05:33:23 78° W 05:37:38 10° S
Cosmos 1025 Rocket 3.8 05:30:32 10° SW 05:34:18 30° WNW 05:38:07 10° N
ATLAS 3B R/B 2.7 05:34:05 10° NW 05:40:41 64° SW 05:47:26 10° SSE
ALOS 2.7 05:37:41 10° NNE 05:42:22 69° ESE 05:47:01 10° S
SL-16 R/B 4.1 05:41:02 10° NW 05:43:39 13° NNW 05:46:16 10° N
Cosmos 921 Rocket 4.1 05:41:57 10° NW 05:45:23 23° W 05:48:45 10° SSW
METEOR-M 4.5 05:40:06 10° NNE 05:45:29 74° ESE 05:50:49 10° S
PAYLOAD B 4.3 05:43:08 10° NNE 05:48:46 88° WNW 05:54:19 10° SSW
SKYMED 2 3.9 05:44:50 10° S 05:48:58 43° W 05:53:08 10° NNW
Cosmos 676 Rocket 4.3 05:46:04 10° SSW 05:51:20 75° ESE 05:56:36 10° NNE
Meteor 1-4 Rocket 2.5 05:48:01 10° SSW 05:51:31 59° WNW 05:54:59 10° N
CZ-4B DEB 4.2 05:46:04 10° NNE 05:51:34 77° WNW 05:57:01 10° SSW
Meteor 1-31 Rocket 3.8 05:48:51 10° N 05:52:00 25° WNW 05:55:08 10° WSW
GP-B 3.2 05:48:06 10° SSW 05:52:27 56° W 05:56:51 10° N
ASTEX 1 4.0 05:48:34 10° SSE 05:53:22 64° E 05:58:13 10° N
Cosmos 44 Rocket 3.6 05:50:01 10° NW 05:54:46 65° NE 05:59:25 10° SE
COSMOS 2455 3.8 05:49:45 10° W 05:55:04 31° NW 06:00:23 10° NNE
Cosmos 1023 Rocket 4.5 05:50:34 10° SSW 05:55:45 81° WNW 06:00:57 10° NNE
CENTAUR R/B 3.4 05:48:23 10° NW 05:56:07 54° WSW 06:04:27 10° SSE
NOSS 2-2 (C) 4.1 05:52:59 10° WSW 05:56:33 37° NW 06:00:47 10° NE
ATLAS 2AS CENTAUR R/B 3.1 05:48:34 10° SW 05:56:37 74° NW 06:04:40 10° NE
Cosmos 2219 Rocket 2.9 05:52:49 10° WSW 05:57:51 33° NW 06:02:55 10° NNE
Cosmos 1892 Rocket 3.6 05:56:11 10° SSW 06:00:37 71° WNW 06:05:03 10° N
Cosmos 2237 Rocket 2.3 05:55:52 10° SW 06:01:30 65° WNW 06:07:12 10° NNE
Cosmos 1190 Rocket 4.1 05:56:56 10° SW 06:02:11 60° WNW 06:07:26 10° NNE
